[[{"header":{"parameterUnit":"m.s-1","parameterCategory":1,"la1":30.2991,"la2":30.254,"lo1":-89.0895,"lo2":-89.0444,"dy":0.0017,"dx":0.0017,"nx":28,"ny":28,"refTime":"2024-03-14T09:00:00:Z","depth":0,"parameterNumber":2,"parameterNumberName":"U-component_of_WINDS"},"data":[0,0,0,0,0,0,0,0,0,0,0,0,0,0,0,0,0,0,0,0,0,0,0,0,0,0,0,0,0,0,0,0,0,0,0,0,0,0,0,0,0,0,0,0,0,0,0,0,0,0,0,0,0,0,0,0,0,0,-1.8563,-1.8562,0,-1.8534,-1.8534,-1.8534,-1.8505,-1.8505,-1.8504,-1.8504,-1.8473,-1.8473,-1.8472,0,0,0,0,0,0,0,0,0,0,0,0,0,-1.8591,-1.8591,-1.8563,-1.8562,-1.8562,-1.8534,-1.8534,-1.8534,-1.8505,-1.8505,-1.8504,-1.8504,-1.8473,-1.8473,-1.8472,0,0,0,0,0,0,0,0,0,0,0,0,0,-1.8572,-1.859,-1.8563,-1.8544,-1.8543,-1.8535,-1.8534,-1.8534,-1.8505,-1.8505,-1.8504,-1.8504,-1.8474,-1.8473,-1.8472,-1.8479,0,0,-1.847,-1.847,0,0,0,0,0,0,0,0,-1.8573,-1.8571,-1.8547,-1.8546,-1.8544,-1.8523,-1.8533,-1.8515,-1.8505,-1.8519,-1.8504,-1.8503,-1.849,-1.8488,-1.8484,-1.8478,-1.8477,-1.847,-1.847,-1.8469,-1.8469,0,0,0,0,0,0,0,-1.8575,-1.8572,-1.8551,-1.8547,-1.8545,-1.8537,-1.8534,-1.8529,-1.8508,-1.8518,-1.8516,-1.8513,-1.8489,-1.8485,-1.8483,-1.8476,-1.847,-1.8469,-1.8469,-1.8469,-1.8475,-1.8476,0,0,0,0,0,0,-1.8579,-1.8574,-1.8552,-1.8551,-1.8557,-1.8537,-1.8534,-1.853,-1.8508,-1.8504,-1.8514,-1.8512,-1.8486,-1.8484,-1.8482,-1.8488,-1.8469,-1.8469,-1.8468,-1.8474,-1.8475,-1.8476,0,0,0,0,0,0,-1.858,-1.8577,-1.8553,-1.8561,-1.8558,-1.8537,-1.8534,-1.853,-1.8525,-1.8505,-1.8501,-1.8513,-1.8485,-1.8483,-1.848,-1.8487,-1.8468,-1.8468,-1.8474,-1.8475,-1.8475,-1.8502,0,0,0,0,0,0,-1.8581,-1.8578,-1.858,-1.8562,-1.8558,-1.8553,-1.8534,-1.853,-1.8524,-1.8522,-1.8503,-1.85,-1.8485,-1.8482,-1.848,-1.8486,-1.8467,-1.8473,-1.8474,-1.8475,-1.85,-1.8504,-1.8506,0,0,0,0,0,-1.8582,-1.8589,-1.8581,-1.8578,-1.8561,-1.8553,-1.8551,-1.8534,-1.8525,-1.8527,-1.8514,-1.85,-1.8487,-1.8482,-1.8479,-1.8485,-1.8472,-1.8474,-1.8475,-1.8499,-1.8503,-1.8506,0,0,0,0,0,0,-1.8608,-1.8586,-1.8577,-1.8578,-1.8568,-1.8548,-1.8551,-1.8539,-1.853,-1.8528,-1.8508,-1.8504,-1.8504,-1.8494,-1.8489,-1.8491,-1.8478,-1.8479,-1.8497,-1.85,-1.8503,-1.8505,-1.8467,0,0,0,0,0,-1.8614,-1.861,-1.8591,-1.8594,-1.8589,-1.8571,-1.8567,-1.8556,-1.8544,-1.8539,-1.8526,-1.8515,-1.8508,-1.8504,-1.8497,-1.85,-1.8495,-1.8503,-1.8506,-1.8508,-1.8509,-1.8509,-1.8512,-1.848,-1.848,-1.848,0,0,-1.8625,-1.8613,-1.8612,-1.8599,-1.8589,-1.8586,-1.8568,-1.8564,-1.8561,-1.8539,-1.8535,-1.8526,-1.8512,-1.8512,-1.8512,-1.8504,-1.8517,-1.851,-1.8512,-1.8511,-1.8511,-1.8514,-1.8517,-1.8481,-1.8481,-1.8481,0,0,-1.8645,-1.8636,-1.8637,-1.8629,-1.8615,-1.8603,-1.8604,-1.8587,-1.8579,-1.8576,-1.8559,-1.8555,-1.8544,-1.8535,-1.8529,-1.8547,-1.8533,-1.8545,-1.856,-1.8561,-1.8564,-1.8566,-1.8572,-1.8574,-1.8546,-1.8546,-1.8546,0,-1.8661,-1.8655,-1.8639,-1.8637,-1.8632,-1.8612,-1.8613,-1.8606,-1.859,-1.8587,-1.8579,-1.8565,-1.8555,-1.8553,-1.8557,-1.8553,-1.8553,-1.8546,-1.8565,-1.8567,-1.8569,-1.8574,-1.8576,-1.8548,-1.8548,-1.8548,-1.8547,0,-1.8676,-1.8672,-1.8675,-1.8661,-1.8656,-1.8656,-1.8639,-1.8636,-1.8625,-1.8614,-1.8611,-1.8598,-1.8588,-1.8587,-1.8576,-1.8584,-1.8579,-1.8569,-1.8555,-1.8573,-1.8578,-1.858,-1.855,-1.8549,-1.8549,-1.8549,0,0,-1.8709,-1.8688,-1.8689,-1.8682,-1.8667,-1.8664,-1.8663,-1.8653,-1.8651,-1.8642,-1.8639,-1.8631,-1.8622,-1.8615,-1.8603,-1.8604,-1.8619,-1.8593,-1.8593,-1.8598,-1.8625,-1.8632,-1.8635,-1.861,-1.8611,-1.8611,-1.8626,0,-1.8725,-1.8722,-1.8708,-1.8709,-1.8705,-1.8687,-1.8686,-1.8676,-1.8667,-1.8662,-1.8651,-1.8645,-1.8633,-1.8629,-1.8629,-1.8617,-1.8624,-1.8616,-1.8607,-1.8607,-1.861,-1.8637,-1.8645,-1.8659,-1.8628,-1.8628,-1.8628,0,-1.8743,-1.8735,-1.8736,-1.8721,-1.8719,-1.8718,-1.8709,-1.8705,-1.8694,-1.8686,-1.868,-1.8667,-1.8664,-1.8653,-1.8649,-1.8644,-1.864,-1.8634,-1.8634,-1.8631,-1.8618,-1.8634,-1.8664,-1.8665,-1.8631,-1.8631,-1.8631,0,-1.8766,-1.8756,-1.8755,-1.8751,-1.8733,-1.8733,-1.8726,-1.8715,-1.871,-1.8702,-1.8699,-1.8691,-1.8686,-1.8679,-1.8665,-1.8658,-1.8662,-1.8649,-1.8655,-1.8656,-1.8656,-1.8656,-1.8684,-1.8656,-1.8656,-1.8656,-1.8656,0,-1.8784,-1.8785,-1.8765,-1.8765,-1.8765,-1.8749,-1.875,-1.8741,-1.8731,-1.8728,-1.8713,-1.8711,-1.8692,-1.8687,-1.8676,-1.8674,-1.8672,-1.8666,-1.8662,-1.8666,-1.8667,-1.8662,-1.866,-1.8656,-1.8656,-1.8656,-1.8656,0,-1.8809,-1.8796,-1.8794,-1.8778,-1.8775,-1.8776,-1.8762,-1.8761,-1.8751,-1.8747,-1.8745,-1.8729,-1.8723,-1.8708,-1.8698,-1.869,-1.8691,-1.8686,-1.8695,-1.8693,-1.8699,-1.8698,-1.8724,-1.8726,-1.8698,-1.8698,-1.8699,0,-1.8821,-1.8822,-1.8806,-1.8804,-1.8797,-1.8793,-1.8789,-1.8774,-1.877,-1.8758,-1.8758,-1.8751,-1.8744,-1.8735,-1.8722,-1.8714,-1.8708,-1.8717,-1.8706,-1.871,-1.8707,-1.8706,-1.8706,-1.8719,-1.872,-1.872,-1.872,0,-1.8843,-1.8837,-1.8832,-1.8824,-1.882,-1.8813,-1.8805,-1.8804,-1.8787,-1.8783,-1.8777,-1.8772,-1.8762,-1.8755,-1.8746,-1.8738,-1.8726,-1.8724,-1.8725,-1.8728,-1.8733,-1.8729,-1.87,-1.8723,-1.8723,-1.8723,-1.8722,-1.8722,-1.8861,-1.8861,-1.885,-1.8845,-1.8838,-1.8831,-1.8829,-1.8819,-1.8814,-1.8805,-1.8797,-1.8792,-1.8781,-1.8767,-1.876,-1.8756,-1.875,-1.8751,-1.8751,-1.8751,-1.8753,-1.8735,-1.8754,-1.8754,-1.8754,-1.8754,-1.8754,0,-1.8882,-1.8875,-1.887,-1.886,-1.8856,-1.8847,-1.8838,-1.8835,-1.8831,-1.8822,-1.8816,-1.8809,-1.8803,-1.879,-1.8782,-1.8781,-1.8775,-1.8779,-1.8778,-1.8777,-1.8759,-1.8759,-1.8784,-1.8784,-1.8784,-1.8784,-1.8784,-1.8784,-1.8892,-1.8891,-1.8883,-1.8879,-1.8871,-1.8866,-1.8862,-1.8856,-1.8849,-1.8842,-1.8837,-1.8829,-1.8819,-1.881,-1.8804,-1.88,-1.8797,-1.8803,-1.8797,-1.8781,-1.8778,-1.8775,-1.8775,-1.8803,-1.8803,-1.8815,-1.8815,-1.8815]},{"header":{"parameterUnit":"m.s-1","parameterCategory":1,"la1":30.2991,"la2":30.254,"lo1":-89.0895,"lo2":-89.0444,"dy":0.0017,"dx":0.0017,"nx":28,"ny":28,"refTime":"2024-03-14T09:00:00:Z","depth":0,"parameterNumber":3,"parameterNumberName":"V-component_of_WINDS"},"data":[0,0,0,0,0,0,0,0,0,0,0,0,0,0,0,0,0,0,0,0,0,0,0,0,0,0,0,0,0,0,0,0,0,0,0,0,0,0,0,0,0,0,0,0,0,0,0,0,0,0,0,0,0,0,0,0,0,0,2.2218,2.2219,0,2.2238,2.2239,2.2239,2.2243,2.2242,2.2242,2.2242,2.226,2.2261,2.2261,0,0,0,0,0,0,0,0,0,0,0,0,0,2.2182,2.2183,2.2218,2.2219,2.2219,2.2238,2.2239,2.2239,2.2243,2.2242,2.2242,2.2242,2.226,2.2261,2.2261,0,0,0,0,0,0,0,0,0,0,0,0,0,2.22,2.2183,2.2218,2.2223,2.2224,2.2238,2.2239,2.2239,2.2243,2.2242,2.2242,2.2242,2.226,2.2261,2.2261,2.2272,0,0,2.2264,2.2265,0,0,0,0,0,0,0,0,2.2199,2.2201,2.2222,2.2223,2.2224,2.2238,2.2233,2.225,2.2243,2.2235,2.2242,2.2242,2.2253,2.2254,2.2258,2.2273,2.2273,2.2264,2.2265,2.2265,2.2266,0,0,0,0,0,0,0,2.2197,2.22,2.2226,2.2222,2.2223,2.2224,2.2226,2.2236,2.2245,2.2236,2.2236,2.2239,2.2253,2.2257,2.2259,2.2274,2.2264,2.2265,2.2266,2.2266,2.23,2.23,0,0,0,0,0,0,2.2196,2.2199,2.2226,2.2227,2.221,2.2225,2.2227,2.2233,2.2245,2.2247,2.2239,2.2239,2.2256,2.2258,2.2259,2.2274,2.2265,2.2266,2.2267,2.2299,2.23,2.23,0,0,0,0,0,0,2.2195,2.2198,2.2225,2.2213,2.2217,2.2226,2.2233,2.2234,2.2238,2.2247,2.2249,2.2242,2.2256,2.2258,2.2269,2.2274,2.2267,2.2267,2.2299,2.2299,2.23,2.2302,0,0,0,0,0,0,2.2194,2.2198,2.2202,2.2213,2.2217,2.2235,2.2233,2.2234,2.224,2.224,2.225,2.2252,2.2256,2.2268,2.227,2.2276,2.2268,2.2299,2.2299,2.23,2.2301,2.2302,2.2303,0,0,0,0,0,2.2192,2.22,2.2202,2.2205,2.2223,2.2235,2.2237,2.2242,2.2241,2.2245,2.2251,2.2251,2.2274,2.2269,2.2272,2.2277,2.2298,2.2299,2.23,2.2301,2.2302,2.2303,0,0,0,0,0,0,2.2188,2.2202,2.2204,2.2216,2.2224,2.2236,2.2241,2.2243,2.2252,2.2251,2.2257,2.2259,2.227,2.2275,2.227,2.2289,2.2286,2.2287,2.2286,2.2287,2.2288,2.2287,2.2269,0,0,0,0,0,2.2188,2.2198,2.2209,2.2219,2.2223,2.2231,2.2237,2.2241,2.2249,2.2252,2.2259,2.2267,2.2276,2.2282,2.229,2.2302,2.2305,2.2307,2.2308,2.2309,2.231,2.2319,2.232,2.2303,2.2303,2.2303,0,0,2.2189,2.2198,2.2203,2.2218,2.2225,2.2235,2.2234,2.2244,2.2251,2.2254,2.2265,2.2271,2.228,2.2292,2.2298,2.2296,2.2316,2.231,2.2311,2.2311,2.232,2.2321,2.2323,2.2303,2.2303,2.2303,0,0,2.2196,2.2203,2.2213,2.222,2.2232,2.2238,2.224,2.2252,2.2256,2.2268,2.2271,2.2279,2.2294,2.2301,2.2307,2.2319,2.232,2.2321,2.2326,2.2334,2.2335,2.2337,2.2342,2.2344,2.2322,2.2322,2.2322,0,2.2195,2.221,2.2217,2.2227,2.2234,2.2239,2.2249,2.2256,2.2269,2.2274,2.2272,2.2292,2.2299,2.2314,2.2317,2.2321,2.2324,2.232,2.2335,2.2336,2.2337,2.2343,2.2345,2.2322,2.2322,2.2322,2.2322,0,2.2209,2.222,2.2226,2.2241,2.2248,2.2258,2.2267,2.2274,2.2277,2.2284,2.2297,2.2305,2.2316,2.232,2.2322,2.2336,2.2335,2.2334,2.2331,2.2339,2.2344,2.2346,2.2323,2.2323,2.2322,2.2322,0,0,2.2212,2.2232,2.2234,2.2242,2.2256,2.2264,2.2275,2.2288,2.2294,2.2303,2.2313,2.2327,2.2327,2.2333,2.2337,2.2344,2.2355,2.2343,2.2343,2.2345,2.2372,2.2373,2.2375,2.2356,2.2356,2.2356,2.2371,0,2.2221,2.2241,2.2249,2.2266,2.2277,2.2282,2.2292,2.2301,2.2308,2.2318,2.2324,2.2335,2.2333,2.2338,2.2345,2.2352,2.236,2.2351,2.2365,2.2365,2.2363,2.2377,2.2378,2.2391,2.2373,2.2373,2.2374,0,2.2234,2.2245,2.2264,2.2279,2.2284,2.2292,2.2305,2.2315,2.2326,2.233,2.2339,2.2343,2.2355,2.2351,2.2368,2.2361,2.2368,2.2372,2.2373,2.2375,2.237,2.238,2.2396,2.2398,2.2377,2.2376,2.2376,0,2.2235,2.2256,2.227,2.2276,2.2293,2.23,2.2307,2.2319,2.2326,2.2338,2.2343,2.2355,2.2361,2.2371,2.2378,2.2374,2.2395,2.2391,2.2399,2.2399,2.2403,2.2402,2.242,2.2406,2.2406,2.2406,2.2406,0,2.2245,2.2256,2.2271,2.228,2.2293,2.2302,2.2315,2.2322,2.2333,2.2344,2.2348,2.2358,2.2367,2.2377,2.2383,2.2397,2.2399,2.2403,2.2405,2.2404,2.2403,2.2408,2.2407,2.2406,2.2406,2.2406,2.2406,0,2.2249,2.2259,2.2275,2.2292,2.2296,2.2305,2.2319,2.2328,2.2335,2.2349,2.2352,2.2364,2.2377,2.2385,2.2401,2.2405,2.2421,2.2421,2.2417,2.2418,2.2426,2.2426,2.2448,2.2452,2.2434,2.2434,2.2434,0,2.2254,2.2263,2.2282,2.229,2.2298,2.231,2.2319,2.2329,2.2337,2.2353,2.236,2.2374,2.2386,2.2407,2.2416,2.2429,2.243,2.2437,2.2432,2.2431,2.2432,2.2432,2.2433,2.2438,2.2438,2.2438,2.2439,0,2.2263,2.2269,2.2282,2.2297,2.2308,2.232,2.2332,2.2338,2.235,2.236,2.2374,2.2384,2.2402,2.2416,2.243,2.2437,2.244,2.244,2.2443,2.2442,2.244,2.2442,2.2421,2.244,2.244,2.2439,2.2439,2.2439,2.2269,2.2278,2.2293,2.2308,2.2319,2.2331,2.2341,2.2351,2.2363,2.238,2.2384,2.24,2.2413,2.2433,2.244,2.2453,2.2452,2.2455,2.2456,2.2457,2.2458,2.2438,2.2455,2.2455,2.2455,2.2455,2.2455,0,2.2279,2.229,2.2304,2.2322,2.2334,2.2337,2.2351,2.2361,2.2375,2.2388,2.24,2.2418,2.2432,2.2443,2.2458,2.2466,2.2468,2.2469,2.2469,2.2471,2.2457,2.2454,2.2468,2.2468,2.2468,2.2468,2.2468,2.2468,2.2286,2.2303,2.2311,2.2333,2.2344,2.236,2.2368,2.2379,2.239,2.241,2.2422,2.2431,2.2443,2.2459,2.2473,2.2476,2.2481,2.2483,2.2486,2.2473,2.2472,2.247,2.2468,2.2484,2.2484,2.2499,2.2499,2.2499]}]]